Ovda Intl Airport, Israel

4:45 PM IDT on September 22, 2017 (GMT +0300)
Ovda Air Base

Weather History for LLOV - October, 2012

Change the Weather History Date:

Monday, October 29, 2012

  Actual Average Record
Temperature  
Mean Temperature 72 °F -  
Max Temperature 86 °F 70 °F 89 °F (1997)
Min Temperature 57 °F 51 °F 51 °F (1996)
Cooling Degree Days 6    
Growing Degree Days 22 (Base 50)    
Moisture  
Dew Point 46 °F    
Average Humidity 45    
Maximum Humidity 72    
Minimum Humidity 22    
Precipitation  
Precipitation 0.00 in - - ()
Sea Level Pressure  
Sea Level Pressure 29.97 in    
Wind  
Wind Speed 5 mph ()    
Max Wind Speed 12 mph    
Max Gust Speed -    
Averages and records for this station are not official NWS values.
T = Trace of Precipitation, MM = Missing Value Source: Averaged Metar Reports

Daily Weather History Graph

Daily Weather History Graph

Search for Another Location

Airport or City:

Trip Planner

Search our weather history database for the weather conditions in past years. The results will help you decide how hot, cold, wet, or windy it might be!

Date:

Astronomy

Oct. 29, 2012 Rise Set
Actual Time 5:51 AM IST 4:55 PM IST
Civil Twilight 5:27 AM IST 5:20 PM IST
Nautical Twilight 4:59 AM IST 5:48 PM IST
Astronomical Twilight 4:31 AM IST 6:16 PM IST
Moon 4:37 PM IST (10/29) 5:21 AM IST (10/29)
Length of Visible Light 11h 52m
Length of Day
11h 03m
Full, 100% of the Moon is Illuminated
Oct 29
Full
Oct 29
Full
Nov 7
Last Quarter
Nov 14
New
Nov 20
First Quarter

Hourly Weather History & Observations

Time (IST) Temp. Dew Point Humidity Pressure Visibility Wind Dir Wind Speed Gust Speed Precip Events Conditions
12:50 AM 60.8 °F 46.4 °F 59% 30.04 in - SW 5.8 mph - N/A   Clear
1:50 AM 59.0 °F 48.2 °F 67% 30.04 in - WSW 6.9 mph - N/A   Clear
2:50 AM 57.2 °F 48.2 °F 72% 30.01 in - SSW 4.6 mph - N/A   Clear
3:50 AM 59.0 °F 48.2 °F 67% 30.01 in - Variable 1.2 mph - N/A   Clear
4:50 AM 57.2 °F 48.2 °F 72% 30.01 in - WSW 4.6 mph - N/A   Clear
5:50 AM 57.2 °F 48.2 °F 72% 30.01 in - WSW 4.6 mph - N/A   Clear
6:50 AM 59.0 °F 48.2 °F 67% 30.01 in - SW 5.8 mph - N/A   Clear
7:50 AM 64.4 °F 50.0 °F 59% 30.04 in - SW 2.3 mph - N/A   Clear
8:50 AM 69.8 °F 53.6 °F 56% 30.01 in - Variable 2.3 mph - N/A   Clear
9:50 AM 73.4 °F 50.0 °F 44% 30.01 in - NNE 5.8 mph - N/A   Clear
10:50 AM 77.0 °F 48.2 °F 36% 29.98 in - ENE 4.6 mph - N/A   Clear
11:50 AM 80.6 °F 46.4 °F 30% 29.95 in - ENE 3.5 mph - N/A   Clear
12:50 PM 84.2 °F 44.6 °F 25% 29.95 in - NE 4.6 mph - N/A   Clear
1:50 PM 84.2 °F 44.6 °F 25% 29.92 in - NE 5.8 mph - N/A   Clear
2:50 PM 86.0 °F 42.8 °F 22% 29.92 in - NE 6.9 mph - N/A   Clear
3:50 PM 84.2 °F 42.8 °F 23% 29.89 in - NE 8.1 mph - N/A   Clear
4:50 PM 80.6 °F 42.8 °F 26% 29.89 in - NNE 11.5 mph - N/A   Clear
5:50 PM 77.0 °F 44.6 °F 32% 29.92 in - NE 6.9 mph - N/A   Clear
6:50 PM 75.2 °F 44.6 °F 34% 29.92 in - NNE 5.8 mph - N/A   Clear
7:50 PM 71.6 °F 42.8 °F 35% 29.92 in - North 4.6 mph - N/A   Clear
8:50 PM 69.8 °F 42.8 °F 38% 29.92 in - Variable 1.2 mph - N/A   Clear
9:50 PM 66.2 °F 42.8 °F 43% 29.95 in - SW 5.8 mph - N/A   Clear
10:50 PM 66.2 °F 42.8 °F 43% 29.95 in - WSW 4.6 mph - N/A   Clear
11:50 PM 64.4 °F 42.8 °F 45% 29.92 in - SW 8.1 mph - N/A   Clear